Temp
63 63 62 61 61 61 61 59 59 58 58 57 57 57 56 57 57 57 58 58 58 57 57 57 57 57 57 56 55 55 54 54 53 53 52 52 51 51 51 50 50 50
61 62 61 60 60 60 60 60 59 59 58 58 58 57 57 57 57 58 57 57 57 56 56 56 56 56 55 55 54 54 53 53 53 54 52 51 50 51 50 49 49 49
61 60 60 60 60 59 59 59 59 59 58 58 57 56 58 57 56 56 56 56 56 55 56 56 56 56 55 54 53 53 52 51 51 51 52 50 50 50 49 49 49 49
60 60 60 60 60 59 59 59 59 59 58 58 57 57 57 58 57 57 57 58 55 55 55 55 55 55 55 54 53 52 52 51 50 51 51 51 51 50 49 50 49 49
59 59 60 59 60 60 59 59 58 58 58 57 56 56 58 56 56 55 55 54 55 54 55 55 55 54 54 53 53 52 52 51 50 50 50 49 49 50 49 49 48 48
59 60 60 60 59 59 59 59 58 57 57 56 56 56 55 56 56 55 54 54 53 54 54 54 54 53 53 53 52 51 51 50 50 50 49 48 48 49 49 48 48 47
59 59 59 59 59 60 59 58 57 57 56 56 55 54 55 56 55 54 53 53 53 54 54 54 54 53 53 52 52 51 50 50 49 49 48 48 48 48 48 48 47 47
58 58 59 59 58 58 58 57 57 56 55 54 53 52 56 55 54 54 53 53 53 53 53 54 54 53 52 52 52 50 49 50 49 48 48 47 47 47 47 47 47 46
58 58 58 58 58 58 57 56 55 54 54 54 54 54 55 55 53 53 53 53 52 52 53 53 53 52 52 52 51 50 49 48 48 47 47 47 46 46 46 46 46 45
57 57 57 57 57 57 56 54 53 53 54 54 54 54 53 53 53 52 53 52 52 52 52 52 52 52 51 51 51 50 49 48 47 47 47 46 46 46 45 46 45 45
56 57 57 56 56 55 54 54 53 53 54 53 53 52 52 52 52 52 52 52 52 52 51 51 51 51 51 50 50 49 49 48 47 47 46 46 46 46 48 45 45 44
56 56 56 56 55 54 54 53 53 53 52 52 53 51 51 51 51 50 51 50 50 50 50 50 50 50 50 49 49 49 48 48 47 46 46 45 45 45 45 45 44 44
56 56 56 55 54 53 54 53 53 52 52 51 52 51 51 50 49 49 49 49 49 49 50 50 49 49 49 48 48 48 48 47 46 45 45 45 44 44 44 44 44 44
56 57 57 55 54 54 53 52 52 51 51 51 51 50 50 50 49 48 48 48 48 48 48 49 49 48 47 47 48 47 47 46 46 45 44 44 44 44 44 43 43 44
56 58 56 55 54 53 53 52 51 51 50 50 50 49 49 48 48 48 47 47 46 47 47 48 48 47 47 47 46 46 46 45 44 44 44 44 43 43 43 43 43 43
57 58 55 53 53 53 53 51 50 50 50 49 49 48 48 48 48 48 47 47 46 45 46 47 47 47 50 48 48 47 45 45 44 43 43 42 43 43 43 43 43 42
59 57 54 53 53 54 53 51 50 50 49 48 48 48 47 48 47 46 46 46 46 45 44 45 45 47 45 43 44 46 45 44 43 42 41 41 41 41 42 43 42 42
58 56 53 53 54 54 53 51 50 49 48 48 47 46 46 46 45 45 45 44 44 44 44 44 44 45 42 43 43 44 46 44 42 42 42 41 40 40 40 41 42 42
57 55 53 53 54 54 53 51 49 48 48 47 46 46 46 45 44 44 44 44 44 43 43 42 41 43 42 43 43 43 43 44 42 42 42 40 39 39 39 39 41 43
56 54 54 54 54 53 52 50 49 48 47 47 46 45 44 44 43 43 43 43 43 43 41 41 40 43 42 43 42 42 42 43 41 41 40 39 39 39 39 39 39 40
55 54 54 54 54 53 51 49 48 47 47 46 46 45 44 43 43 42 42 43 42 42 42 41 42 42 42 42 42 42 42 42 41 42 41 39 38 38 38 38 38 40
55 53 54 54 53 52 51 48 47 47 46 46 45 43 43 43 42 43 42 41 41 42 42 40 41 42 42 42 42 42 43 43 41 40 40 39 38 39 39 38 38 38
55 53 53 53 52 51 49 48 46 45 45 46 44 43 43 42 41 41 41 41 42 42 41 40 39 41 42 42 42 42 42 41 40 41 40 38 38 38 39 40 40 39
55 54 53 52 52 50 49 48 47 46 46 47 45 43 42 41 41 40 39 41 41 40 41 41 39 41 42 42 42 42 43 41 40 40 39 38 37 37 39 40 44 49
54 54 53 52 51 50 48 47 46 46 45 45 44 43 41 41 41 40 38 38 39 41 47 42 40 42 42 41 42 42 43 39 41 40 40 37 39 39 38 40 40 43
54 53 52 51 51 50 49 47 46 45 44 44 43 42 41 40 41 40 39 38 38 41 44 42 41 40 42 41 42 42 42 41 40 41 41 38 38 41 42 39 38 39
MSLP
1016.67 1016.95 1017.31 1017.63 1017.91 1018.11 1018.43 1018.83 1019.23 1019.55 1019.79 1019.87 1019.95 1020.03 1020.11 1020.11 1020.07 1020.03 1020.11 1020.19 1020.31 1020.35 1020.43 1020.51 1020.59 1020.67 1020.83 1020.99 1021.15 1021.23 1021.31 1021.39 1021.39 1021.43 1021.47 1021.43 1021.47 1021.39 1021.39 1021.35 1021.23 1021.23
1016.83 1017.03 1017.35 1017.67 1018.03 1018.31 1018.51 1018.75 1019.19 1019.47 1019.75 1019.83 1019.91 1019.99 1020.11 1020.11 1020.11 1020.07 1020.19 1020.31 1020.43 1020.51 1020.59 1020.71 1020.83 1020.95 1021.15 1021.35 1021.47 1021.55 1021.67 1021.67 1021.75 1021.75 1021.75 1021.71 1021.75 1021.67 1021.67 1021.63 1021.51 1021.47
1016.91 1017.15 1017.39 1017.71 1018.07 1018.39 1018.67 1018.99 1019.27 1019.51 1019.67 1019.79 1019.91 1020.03 1020.11 1020.15 1020.19 1020.19 1020.27 1020.39 1020.51 1020.59 1020.75 1020.91 1021.07 1021.27 1021.43 1021.59 1021.71 1021.87 1021.99 1022.03 1022.07 1022.03 1021.95 1022.03 1022.03 1021.95 1021.99 1021.87 1021.75 1021.75
1017.07 1017.23 1017.51 1017.83 1018.11 1018.47 1018.79 1019.11 1019.39 1019.55 1019.71 1019.87 1019.95 1020.03 1020.15 1020.15 1020.19 1020.31 1020.43 1020.47 1020.55 1020.71 1020.99 1021.11 1021.35 1021.55 1021.67 1021.83 1021.99 1022.19 1022.27 1022.31 1022.35 1022.27 1022.19 1022.23 1022.23 1022.23 1022.19 1022.11 1022.07 1022.07
1017.11 1017.47 1017.71 1017.99 1018.27 1018.51 1018.79 1019.11 1019.35 1019.55 1019.67 1019.75 1019.91 1020.11 1020.15 1020.15 1020.31 1020.47 1020.59 1020.63 1020.67 1020.91 1021.15 1021.35 1021.55 1021.75 1021.91 1022.11 1022.23 1022.43 1022.55 1022.59 1022.59 1022.51 1022.47 1022.51 1022.55 1022.43 1022.47 1022.39 1022.39 1022.47
1017.35 1017.55 1017.87 1018.11 1018.39 1018.59 1018.91 1019.11 1019.31 1019.47 1019.67 1019.83 1019.91 1020.11 1020.15 1020.23 1020.39 1020.51 1020.59 1020.71 1020.91 1021.07 1021.31 1021.51 1021.75 1021.99 1022.11 1022.31 1022.47 1022.63 1022.79 1022.87 1022.87 1022.75 1022.71 1022.75 1022.79 1022.75 1022.75 1022.75 1022.71 1022.79
1017.51 1017.79 1018.07 1018.31 1018.51 1018.63 1018.83 1019.11 1019.31 1019.47 1019.67 1019.79 1019.95 1020.07 1020.19 1020.31 1020.43 1020.59 1020.75 1020.87 1021.03 1021.23 1021.39 1021.67 1021.91 1022.19 1022.35 1022.47 1022.63 1022.87 1023.03 1023.11 1023.07 1022.99 1022.91 1023.03 1022.99 1023.03 1023.03 1022.99 1023.11 1023.15
1017.67 1017.95 1018.19 1018.43 1018.59 1018.79 1018.95 1019.15 1019.31 1019.51 1019.67 1019.83 1019.95 1020.19 1020.23 1020.39 1020.55 1020.79 1020.99 1021.03 1021.19 1021.43 1021.55 1021.79 1022.07 1022.31 1022.51 1022.59 1022.79 1023.03 1023.23 1023.27 1023.27 1023.15 1023.15 1023.27 1023.27 1023.31 1023.39 1023.43 1023.47 1023.43
1017.79 1018.11 1018.35 1018.55 1018.71 1018.91 1019.07 1019.23 1019.43 1019.59 1019.71 1019.83 1020.15 1020.39 1020.43 1020.51 1020.71 1020.95 1021.15 1021.23 1021.43 1021.59 1021.75 1021.99 1022.23 1022.51 1022.71 1022.79 1023.03 1023.19 1023.31 1023.43 1023.43 1023.35 1023.39 1023.51 1023.59 1023.75 1023.79 1023.75 1023.67 1023.75
1017.95 1018.23 1018.43 1018.63 1018.83 1019.03 1019.23 1019.43 1019.55 1019.67 1019.87 1020.11 1020.35 1020.51 1020.67 1020.83 1020.95 1021.11 1021.23 1021.39 1021.59 1021.79 1021.95 1022.19 1022.43 1022.71 1022.91 1023.07 1023.19 1023.27 1023.39 1023.51 1023.55 1023.63 1023.67 1023.79 1023.91 1024.03 1024.07 1024.03 1024.03 1023.91
1018.11 1018.35 1018.51 1018.71 1018.95 1019.19 1019.43 1019.59 1019.67 1019.91 1020.11 1020.31 1020.51 1020.75 1020.87 1020.95 1021.27 1021.35 1021.43 1021.59 1021.75 1021.95 1022.15 1022.39 1022.63 1022.83 1023.07 1023.27 1023.39 1023.43 1023.47 1023.59 1023.75 1023.83 1023.95 1024.03 1024.15 1024.27 1024.31 1024.31 1024.27 1024.27
1018.23 1018.43 1018.59 1018.79 1019.07 1019.35 1019.51 1019.71 1019.91 1020.15 1020.43 1020.59 1020.63 1020.87 1021.11 1021.19 1021.35 1021.63 1021.67 1021.91 1022.07 1022.23 1022.35 1022.63 1022.83 1023.03 1023.19 1023.35 1023.51 1023.59 1023.67 1023.79 1023.95 1024.11 1024.23 1024.35 1024.43 1024.51 1024.55 1024.55 1024.47 1024.39
1018.31 1018.47 1018.63 1018.87 1019.15 1019.47 1019.67 1019.91 1020.19 1020.47 1020.63 1020.87 1020.91 1020.99 1021.19 1021.47 1021.71 1021.83 1022.15 1022.15 1022.39 1022.51 1022.63 1022.83 1023.07 1023.23 1023.39 1023.51 1023.59 1023.71 1023.83 1023.95 1024.15 1024.31 1024.47 1024.55 1024.67 1024.71 1024.79 1024.75 1024.63 1024.51
1018.39 1018.51 1018.67 1018.95 1019.27 1019.55 1019.87 1020.19 1020.51 1020.75 1020.91 1021.07 1021.15 1021.27 1021.47 1021.63 1021.83 1022.07 1022.43 1022.51 1022.67 1022.79 1022.99 1023.07 1023.23 1023.47 1023.59 1023.67 1023.75 1023.83 1023.99 1024.19 1024.35 1024.47 1024.59 1024.71 1024.83 1024.91 1024.91 1024.87 1024.79 1024.63
1018.39 1018.59 1018.79 1019.11 1019.43 1019.75 1020.11 1020.51 1020.79 1020.99 1021.15 1021.27 1021.43 1021.59 1021.75 1021.91 1022.11 1022.23 1022.47 1022.79 1022.99 1023.07 1023.19 1023.35 1023.43 1023.63 1023.67 1023.71 1023.87 1024.11 1024.19 1024.39 1024.55 1024.67 1024.71 1024.79 1024.95 1024.99 1025.07 1025.03 1024.91 1024.79
1018.39 1018.63 1018.99 1019.31 1019.63 1019.99 1020.39 1020.79 1021.07 1021.27 1021.39 1021.59 1021.75 1021.87 1021.99 1022.15 1022.31 1022.55 1022.67 1022.87 1023.11 1023.35 1023.47 1023.55 1023.67 1023.71 1023.75 1023.75 1023.87 1024.11 1024.39 1024.59 1024.75 1024.87 1024.95 1024.99 1025.03 1025.11 1025.15 1025.15 1025.11 1024.99
1018.31 1018.75 1019.07 1019.43 1019.71 1020.07 1020.51 1020.91 1021.23 1021.43 1021.63 1021.83 1022.03 1022.15 1022.27 1022.39 1022.51 1022.71 1022.95 1023.15 1023.27 1023.47 1023.67 1023.79 1023.91 1023.99 1023.91 1023.95 1024.11 1024.23 1024.43 1024.67 1024.79 1025.03 1025.15 1025.19 1025.27 1025.23 1025.27 1025.31 1025.35 1025.31
1018.35 1018.75 1019.15 1019.51 1019.71 1020.11 1020.59 1020.99 1021.27 1021.51 1021.75 1022.03 1022.23 1022.47 1022.63 1022.71 1022.83 1022.99 1023.19 1023.35 1023.55 1023.75 1023.91 1024.07 1024.23 1024.27 1024.07 1024.15 1024.27 1024.39 1024.55 1024.83 1025.03 1025.15 1025.27 1025.35 1025.43 1025.43 1025.51 1025.51 1025.43 1025.31
1018.39 1018.75 1019.23 1019.51 1019.75 1020.11 1020.59 1020.99 1021.31 1021.59 1021.83 1022.15 1022.47 1022.71 1022.83 1022.95 1023.11 1023.19 1023.39 1023.59 1023.67 1023.87 1024.15 1024.35 1024.51 1024.47 1024.23 1024.31 1024.47 1024.63 1024.79 1024.99 1025.23 1025.35 1025.39 1025.55 1025.63 1025.67 1025.67 1025.59 1025.47 1025.27
1018.39 1018.75 1019.19 1019.47 1019.75 1020.19 1020.63 1021.03 1021.31 1021.59 1021.87 1022.15 1022.47 1022.83 1022.99 1023.19 1023.31 1023.43 1023.63 1023.79 1023.91 1024.03 1024.35 1024.55 1024.67 1024.59 1024.39 1024.47 1024.67 1024.87 1025.03 1025.19 1025.39 1025.51 1025.67 1025.79 1025.83 1025.87 1025.79 1025.71 1025.67 1025.43
1018.31 1018.63 1018.99 1019.35 1019.75 1020.19 1020.63 1021.07 1021.43 1021.83 1022.11 1022.35 1022.55 1022.75 1022.95 1023.15 1023.39 1023.59 1023.87 1023.99 1024.15 1024.23 1024.39 1024.67 1024.83 1024.67 1024.55 1024.67 1024.87 1025.03 1025.23 1025.43 1025.63 1025.75 1025.83 1025.91 1025.99 1026.03 1025.95 1025.87 1025.75 1025.63
1018.07 1018.51 1018.83 1019.19 1019.63 1020.11 1020.59 1021.07 1021.43 1021.71 1022.07 1022.43 1022.67 1023.03 1023.27 1023.43 1023.67 1023.75 1023.91 1024.11 1024.27 1024.31 1024.47 1024.79 1024.95 1024.75 1024.71 1024.83 1025.03 1025.23 1025.43 1025.63 1025.79 1025.79 1025.87 1025.95 1026.03 1026.07 1025.99 1025.95 1025.87 1025.67
1017.55 1018.15 1018.59 1018.99 1019.47 1020.03 1020.59 1021.07 1021.47 1021.87 1022.15 1022.27 1022.63 1023.03 1023.31 1023.59 1023.75 1023.91 1024.03 1024.11 1024.27 1024.43 1024.55 1024.87 1025.03 1024.95 1024.87 1024.99 1025.19 1025.39 1025.55 1025.79 1025.87 1025.95 1025.99 1026.03 1026.15 1026.15 1026.03 1025.91 1025.83 1025.75
1017.11 1017.55 1018.15 1018.67 1019.23 1019.83 1020.51 1021.03 1021.39 1021.71 1021.99 1022.11 1022.35 1022.91 1023.35 1023.71 1023.91 1024.11 1024.23 1024.23 1024.27 1024.51 1024.59 1024.79 1025.07 1025.15 1025.07 1025.15 1025.35 1025.55 1025.59 1025.75 1025.91 1025.87 1026.03 1026.07 1026.19 1026.19 1026.11 1025.99 1025.91 1025.79
1017.07 1017.31 1017.83 1018.51 1019.15 1019.83 1020.43 1020.99 1021.39 1021.67 1021.99 1022.27 1022.55 1022.87 1023.35 1023.75 1023.95 1024.07 1024.35 1024.47 1024.51 1024.59 1024.71 1024.83 1025.11 1025.31 1025.27 1025.27 1025.39 1025.55 1025.67 1025.87 1025.87 1025.87 1025.91 1026.07 1026.03 1026.11 1026.15 1026.07 1026.03 1026.03
1017.31 1017.83 1018.43 1019.03 1019.59 1020.11 1020.59 1020.99 1021.47 1021.87 1022.23 1022.47 1022.83 1023.03 1023.43 1023.75 1023.91 1024.03 1024.19 1024.55 1024.67 1024.71 1024.87 1025.03 1025.19 1025.39 1025.43 1025.39 1025.43 1025.55 1025.67 1025.83 1025.95 1025.79 1025.87 1025.99 1026.03 1025.99 1025.95 1026.11 1026.15 1026.19
Wind_Speed
7 6 7 7 6 7 8 8 6 6 5 5 5 4 4 3 3 4 5 5 5 5 5 6 6 7 7 6 6 6 6 6 6 6 6 6 6 7 8 7 7 7
6 7 6 6 6 6 6 7 7 7 6 5 5 4 3 3 3 5 6 5 5 5 5 7 7 7 7 6 6 7 6 6 7 4 6 7 5 6 7 7 7 6
7 7 8 8 8 8 8 6 6 6 6 5 4 3 4 3 4 4 5 5 5 5 7 7 8 7 7 6 6 6 6 6 6 4 6 6 5 7 6 6 7 8
6 7 7 8 8 9 8 7 6 5 5 5 4 3 3 4 5 5 4 5 6 6 7 7 8 7 7 7 6 6 6 6 4 4 6 6 6 6 7 6 7 8
8 8 7 7 7 8 8 8 7 6 6 5 4 3 4 5 5 5 5 5 6 6 7 7 7 7 7 6 6 6 5 6 4 5 6 7 5 6 6 7 8 9
7 7 8 8 8 9 8 7 6 6 5 5 5 3 4 5 6 5 5 6 5 7 7 7 7 6 7 6 6 6 5 6 4 5 7 7 6 6 6 7 8 9
9 8 8 7 8 8 8 6 5 5 5 5 4 4 4 6 6 6 5 5 6 7 8 8 8 7 6 6 7 6 5 5 4 5 7 6 6 8 7 7 8 8
8 7 7 7 8 7 7 5 5 5 4 4 5 3 6 7 7 5 5 6 7 7 8 8 7 7 5 6 7 6 5 4 5 6 7 6 6 7 7 6 6 7
8 8 7 7 8 6 5 5 4 4 4 6 5 5 5 7 7 6 6 7 7 7 8 7 7 6 5 6 6 7 6 5 5 6 6 7 7 6 6 5 7 6
8 7 8 7 6 5 5 4 4 5 5 7 6 6 7 6 7 7 7 8 8 7 7 7 7 6 6 5 6 7 7 7 6 6 6 6 6 6 5 6 5 6
8 7 7 6 5 5 5 5 6 6 6 7 7 7 7 8 6 5 7 7 8 8 8 7 7 7 7 6 5 5 7 7 6 6 6 6 6 5 5 4 5 4
8 7 7 6 6 5 6 6 7 6 6 5 7 8 6 6 7 5 6 8 7 7 7 7 6 7 7 7 6 6 7 7 6 5 5 5 4 4 4 4 4 4
8 7 7 6 6 6 6 7 6 6 6 6 5 8 8 8 6 8 5 7 6 6 7 7 7 7 7 7 7 7 7 7 6 5 5 5 4 4 4 4 4 3
7 7 6 7 7 7 7 7 6 6 6 5 6 8 8 8 8 9 6 6 6 7 6 6 7 7 6 6 6 7 7 6 6 5 5 5 5 4 4 4 3 3
7 5 5 7 7 8 8 7 6 6 6 6 6 6 6 7 7 8 9 8 6 6 6 5 7 6 5 7 8 7 7 7 6 5 5 5 5 5 4 4 4 3
8 6 7 7 8 9 8 7 6 6 6 7 6 7 7 7 7 6 8 8 8 6 5 5 5 4 7 11 9 8 6 6 6 5 4 4 4 5 4 4 4 4
8 7 7 7 8 9 8 8 7 6 7 7 7 6 7 6 7 8 7 6 7 7 7 5 4 5 11 12 12 12 8 6 6 5 4 4 4 4 4 3 3 2
8 8 8 8 9 10 9 8 7 7 8 7 7 7 6 6 8 7 7 7 7 7 7 6 5 7 13 13 12 12 10 7 5 5 5 4 3 4 3 2 2 3
8 8 8 8 9 10 9 8 8 8 8 8 7 6 6 7 7 7 7 6 7 8 6 5 5 8 13 13 13 12 12 8 6 5 6 4 3 3 3 3 3 4
8 8 9 9 9 9 9 9 8 8 7 7 7 6 7 7 6 7 6 6 7 8 7 5 5 9 13 14 13 12 11 9 5 6 5 4 3 3 3 3 3 3
9 8 9 10 10 10 9 9 9 8 8 7 7 8 8 8 8 8 6 6 6 7 7 6 5 11 13 14 13 12 11 8 6 5 5 4 3 3 3 3 3 3
9 9 9 10 10 10 10 10 9 10 9 7 7 6 5 6 5 6 7 7 6 7 8 7 5 12 13 13 13 11 10 6 5 5 5 4 4 3 3 2 2 3
11 11 11 11 11 11 10 10 9 8 7 7 9 7 7 6 6 5 6 8 7 7 8 7 5 8 13 12 11 11 8 6 5 5 5 4 3 3 3 3 3 4
12 12 12 12 12 12 11 9 9 8 8 8 10 9 8 6 6 6 4 5 7 7 7 8 6 7 11 11 11 9 7 6 5 6 5 4 3 3 4 4 5 9
10 11 12 12 11 11 10 10 9 9 7 6 7 8 8 6 6 7 5 4 5 6 8 8 6 7 10 11 11 10 7 4 6 6 6 4 4 4 4 6 4 6
7 8 10 11 10 10 9 9 8 8 8 8 6 7 7 6 6 7 7 5 4 5 7 7 7 6 7 11 10 10 9 6 4 7 6 4 4 4 6 5 4 4
Wind_Direction
140 137 138 137 136 138 138 133 134 135 143 140 143 168 162 172 118 90 105 108 106 100 93 86 85 82 76 70 71 72 67 66 58 49 53 56 53 51 49 41 41 41
138 132 127 121 119 124 124 129 138 143 148 154 160 156 158 121 94 107 112 107 100 98 91 85 85 85 82 77 72 73 65 61 63 48 61 56 49 52 50 44 45 37
135 130 132 137 139 135 130 130 138 145 148 161 156 146 134 110 102 105 115 113 106 96 84 87 89 86 85 80 72 69 69 66 66 54 65 58 48 54 46 45 46 41
126 130 131 129 132 133 133 135 142 137 133 142 160 154 129 118 110 113 104 105 101 87 82 86 94 91 88 84 82 73 69 65 61 64 69 58 50 54 46 48 50 46
132 126 125 126 129 131 136 142 148 146 152 156 143 142 120 115 110 96 90 82 88 84 84 95 96 96 92 85 84 83 71 69 55 65 69 64 45 51 44 50 50 48
118 125 132 135 139 139 142 149 150 148 148 147 148 130 132 112 105 104 98 91 81 86 91 98 98 95 97 96 87 79 77 71 60 66 69 64 54 44 48 48 52 51
132 132 133 135 135 141 144 149 147 150 147 138 119 133 123 108 108 102 97 98 90 90 102 108 107 104 102 102 91 88 76 78 68 66 70 61 59 50 42 47 49 52
129 128 132 136 137 145 145 144 148 146 135 106 110 136 118 114 108 104 104 99 94 97 105 109 108 109 110 103 102 98 89 78 74 69 69 62 58 55 43 42 47 51
129 133 136 140 141 144 139 134 129 114 111 111 116 113 111 113 112 109 107 100 96 101 107 107 109 106 103 107 108 107 100 86 75 72 69 65 61 54 48 42 48 46
131 135 138 143 140 138 131 116 109 102 109 113 118 117 108 99 104 111 103 101 102 101 105 110 107 105 103 106 113 111 104 93 80 71 68 66 66 59 49 47 45 46
135 139 143 143 133 125 117 110 104 106 108 118 118 110 111 108 95 99 102 100 106 111 108 106 110 112 111 107 104 102 100 94 85 77 70 66 61 57 54 50 46 47
142 144 148 142 129 114 110 107 107 107 111 114 121 113 104 101 107 94 104 103 102 104 106 107 107 110 113 115 111 103 95 90 86 79 71 65 59 54 50 45 48 35
147 151 150 136 120 113 109 107 108 113 115 116 115 116 116 109 102 100 87 102 101 102 105 111 109 107 110 110 108 102 99 95 87 78 71 67 57 52 46 45 40 31
146 150 145 121 113 113 110 110 111 110 111 109 110 110 113 116 117 109 100 94 97 98 100 107 109 109 108 107 103 104 102 95 93 88 78 69 59 48 45 44 37 28
144 149 121 109 113 114 112 111 112 114 111 109 106 105 102 104 106 113 111 98 87 93 96 98 106 113 121 120 110 100 100 98 93 87 83 76 61 52 41 39 31 22
145 132 111 112 119 119 119 116 117 116 112 106 103 104 107 108 105 100 103 110 106 96 92 96 98 104 113 111 113 118 107 103 93 84 78 71 72 64 47 37 29 20
142 126 117 121 126 124 123 124 121 117 110 107 104 104 106 109 109 106 103 103 106 108 102 94 96 108 110 106 107 108 107 102 101 91 75 70 68 71 61 45 27 23
139 122 120 128 129 129 129 128 125 120 116 115 112 108 103 103 103 106 106 107 103 99 99 104 104 119 111 108 105 103 103 103 99 95 84 71 62 62 48 42 49 53
134 122 126 133 134 134 133 131 129 124 123 121 116 117 113 106 111 109 107 107 108 106 102 104 108 118 109 107 104 102 101 100 95 92 90 79 65 60 53 41 35 57
133 128 133 137 137 135 135 135 133 131 126 122 121 115 112 110 106 107 109 108 113 111 109 109 110 119 110 107 105 102 101 98 94 92 88 81 69 56 57 54 44 63
136 135 139 140 140 138 138 135 130 126 126 129 128 131 130 128 127 118 115 114 112 113 112 109 121 119 111 108 107 104 100 95 94 93 89 78 64 54 57 55 47 63
147 145 145 143 142 141 139 138 139 140 137 134 119 106 98 103 98 111 121 120 117 117 114 115 124 119 114 114 111 109 105 98 98 95 88 78 55 40 48 53 53 61
154 150 150 149 146 144 144 143 140 137 135 133 120 121 122 120 125 122 129 127 126 124 121 124 129 130 123 121 118 117 108 103 103 95 89 83 64 39 39 52 61 62
158 155 153 151 149 147 146 144 141 140 142 143 135 135 127 131 128 116 113 129 133 135 138 137 144 149 135 130 128 126 120 121 116 106 93 91 69 40 45 51 48 60
160 155 149 145 144 143 144 143 146 145 138 125 125 122 126 128 122 117 108 106 133 141 145 138 149 161 151 143 139 133 123 118 117 110 105 84 86 64 47 55 41 42
154 143 130 134 139 137 140 139 134 127 131 127 121 122 124 122 117 118 117 112 117 139 148 149 152 165 169 156 149 141 133 125 122 118 116 111 90 90 69 40 41 34